TimeEDT,TemperatureF,Dew PointF,Humidity,Sea Level PressureIn,VisibilityMPH,Wind Direction,Wind SpeedMPH,Gust SpeedMPH,PrecipitationIn,Events,Conditions,WindDirDegrees,DateUTC
12:52 AM,64.0,57.9,80,29.93,10.0,SSW,4.6,-,N/A,,Clear,210,2013-09-05 04:52:00
1:52 AM,60.1,57.0,90,29.91,10.0,Calm,Calm,-,N/A,,Clear,0,2013-09-05 05:52:00
2:52 AM,59.0,55.9,90,29.90,10.0,Calm,Calm,-,N/A,,Clear,0,2013-09-05 06:52:00
3:52 AM,61.0,57.9,90,29.90,10.0,Calm,Calm,-,N/A,,Clear,0,2013-09-05 07:52:00
4:52 AM,59.0,55.9,90,29.89,10.0,Calm,Calm,-,N/A,,Clear,0,2013-09-05 08:52:00
5:52 AM,60.1,57.0,90,29.90,10.0,Calm,Calm,-,N/A,,Clear,0,2013-09-05 09:52:00
6:52 AM,62.1,57.9,86,29.89,10.0,Calm,Calm,-,N/A,,Mostly Cloudy,0,2013-09-05 10:52:00
7:52 AM,66.0,60.1,81,29.90,10.0,West,4.6,-,N/A,,Mostly Cloudy,280,2013-09-05 11:52:00
8:52 AM,66.0,57.9,75,29.91,10.0,NW,6.9,-,N/A,,Overcast,310,2013-09-05 12:52:00
9:52 AM,64.9,59.0,81,29.95,10.0,NW,10.4,-,0.00,,Overcast,310,2013-09-05 13:52:00
10:52 AM,64.9,61.0,87,29.96,10.0,NW,5.8,-,0.03,,Overcast,320,2013-09-05 14:52:00
11:22 AM,68.0,62.6,83,29.95,10.0,NNW,12.7,-,N/A,,Mostly Cloudy,340,2013-09-05 15:22:00
11:52 AM,68.0,60.1,76,29.95,10.0,North,11.5,-,N/A,,Overcast,10,2013-09-05 15:52:00
12:02 PM,66.2,60.8,83,29.96,10.0,NNE,13.8,-,N/A,,Overcast,20,2013-09-05 16:02:00
12:34 PM,64.4,59.0,83,29.97,10.0,NE,12.7,21.9,0.00,Rain,Light Rain,40,2013-09-05 16:34:00
12:52 PM,66.0,59.0,78,29.97,10.0,NNE,13.8,20.7,0.00,,Overcast,30,2013-09-05 16:52:00
1:04 PM,66.2,57.2,73,29.97,10.0,NNE,12.7,23.0,N/A,,Mostly Cloudy,30,2013-09-05 17:04:00
1:40 PM,66.2,57.2,73,29.98,10.0,NE,15.0,20.7,N/A,,Mostly Cloudy,40,2013-09-05 17:40:00
1:52 PM,68.0,57.0,68,29.98,10.0,NNE,15.0,21.9,N/A,,Mostly Cloudy,30,2013-09-05 17:52:00
2:52 PM,66.9,55.0,66,29.99,10.0,ENE,11.5,-,N/A,,Overcast,60,2013-09-05 18:52:00
3:08 PM,66.2,55.4,68,29.99,10.0,NE,11.5,-,N/A,,Scattered Clouds,40,2013-09-05 19:08:00
3:52 PM,64.9,54.0,68,30.00,10.0,ENE,10.4,-,N/A,,Scattered Clouds,60,2013-09-05 19:52:00
4:52 PM,64.9,53.1,65,30.01,10.0,NE,9.2,-,N/A,,Mostly Cloudy,50,2013-09-05 20:52:00
5:52 PM,64.0,52.0,65,30.03,10.0,NE,8.1,-,N/A,,Clear,40,2013-09-05 21:52:00
6:52 PM,62.1,52.0,70,30.04,10.0,East,3.5,-,N/A,,Mostly Cloudy,80,2013-09-05 22:52:00
7:52 PM,57.0,52.0,83,30.06,10.0,Calm,Calm,-,N/A,,Clear,0,2013-09-05 23:52:00
8:52 PM,55.9,51.1,84,30.09,10.0,Calm,Calm,-,N/A,,Clear,0,2013-09-06 00:52:00
9:52 PM,52.0,48.9,89,30.11,10.0,Calm,Calm,-,N/A,,Clear,0,2013-09-06 01:52:00
10:52 PM,52.0,48.9,89,30.12,10.0,Calm,Calm,-,N/A,,Clear,0,2013-09-06 02:52:00
11:52 PM,51.1,46.9,86,30.13,10.0,Calm,Calm,-,N/A,,Clear,0,2013-09-06 03:52:00